Вернуться в каталог

NOAA 16 DEB

АктивенSSO
NORAD 41049·DEBRIS·🇺🇸 United States

Запущен Sep 21, 2000 с Vandenberg Space Force Base

Loading…

Ближайшие Пролёты (ближайшие 24 часа)

TLE

СвежийSource: Space-Track

Эпоха: Sep 14, 2026, 14:39 UTC

1 41049U 00055G   26257.61046504  .00001851  00000-0  76882-3 0  9995
2 41049  98.6282 318.4668 0004887 255.8155 104.2484 14.27646502558445

Отслеживайте NOAA 16 DEB в реальном времени с AllMySat

Download on the App Store